This demonstration page uses our WeatherBlox Daily Observations layout. Learn more.

Hourly Observations for July 30, 2019

Temp ( °F °C ) Dew Point ( °F °C ) Humidity (%) Winds ( mph kmh ) Pressure ( in mb ) Visibility ( mi km ) Precip ( " mm )
12:15 am 00:15 Clear 67 19.5 62 16.8 84 84 SE 7 11 30.06 1018 10 16.09344 0 0
12:35 am 00:35 Clear 66 18.7 62 16.9 89 89 SE 7 11 30.06 1018 10 16.09344 0 0
12:55 am 00:55 Clear 66 18.8 61 16.3 85 85 ESE 7 11 30.06 1018 10 16.09344 0 0
1:15 am 01:15 Clear 64 17.6 61 16.2 92 92 ESE 6 9 30.06 1018 10 16.09344 0 0
1:35 am 01:35 Clear 65 18.2 61 16.2 88 88 Calm 30.06 1018 10 16.09344 0 0
1:55 am 01:55 Clear 65 18.4 61 16 86 86 SSE 5 7 30.06 1018 10 16.09344 0 0
2:15 am 02:15 Clear 65 18.1 61 16 88 88 SSE 6 9 30.03 1017 10 16.09344 0 0
2:35 am 02:35 Clear 65 18.5 60 15.7 84 84 SSE 7 11 30.06 1018 10 16.09344 0 0
2:55 am 02:55 Clear 64 18 60 15.6 86 86 SSE 5 7 30.06 1018 10 16.09344 0 0
3:15 am 03:15 Clear 64 17.8 60 15.4 86 86 SSE 5 7 30.06 1018 10 16.09344 0 0
3:35 am 03:35 Clear 64 17.9 59 15.2 84 84 Calm 30.06 1018 10 16.09344 0 0
3:55 am 03:55 Clear 63 17.2 59 14.9 86 86 SE 3 6 30.06 1018 10 16.09344 0 0
4:15 am 04:15 Clear 62 16.6 59 14.9 90 90 SE 3 6 30.09 1019 10 16.09344 0 0
4:35 am 04:35 Clear 61 16.1 59 15 93 93 ESE 7 11 30.09 1019 10 16.09344 0 0
4:55 am 04:55 Clear 62 16.5 60 15.5 94 94 ESE 6 9 30.09 1019 10 16.09344 0 0
5:15 am 05:15 Clear 62 16.7 60 15.5 93 93 SE 6 9 30.09 1019 10 16.09344 0 0
5:35 am 05:35 Clear 63 17 60 15.6 92 92 ESE 5 7 30.09 1019 10 16.09344 0 0
5:55 am 05:55 Clear 63 17 60 15.7 92 92 ESE 5 7 30.09 1019 10 16.09344 0 0
6:15 am 06:15 Clear 62 16.6 60 15.8 95 95 ESE 7 11 30.09 1019 10 16.09344 0 0
6:35 am 06:35 Sunny 62 16.8 60 15.5 92 92 ESE 7 11 30.09 1019 10 16.09344 0 0
6:55 am 06:55 Sunny 62 16.5 60 15.5 94 94 ESE 3 6 30.09 1019 10 16.09344 0 0
7:15 am 07:15 Sunny 62 16.5 60 15.5 94 94 SE 6 9 30.09 1019 10 16.09344 0 0
7:35 am 07:35 Sunny 63 17 60 15.8 93 93 SE 6 9 30.09 1019 10 16.09344 0 0
7:55 am 07:55 Sunny 62 16.9 60 15.7 93 93 SE 5 7 30.09 1019 10 16.09344 0 0
8:15 am 08:15 Sunny 64 17.9 61 16.3 90 90 SSE 3 6 30.06 1018 10 16.09344 0 0
8:35 am 08:35 Sunny 67 19.3 62 16.7 85 85 SSE 8 13 30.06 1018 10 16.09344 0 0
8:55 am 08:55 Sunny 68 20 62 16.8 82 82 SSE 8 13 30.06 1018 10 16.09344 0 0
9:15 am 09:15 Sunny 69 20.5 63 17.1 81 81 SE 9 15 30.06 1018 10 16.09344 0 0
9:35 am 09:35 Sunny 72 22 64 17.5 76 76 SE 9 15 30.03 1017 10 16.09344 0 0
9:55 am 09:55 Sunny 73 22.7 64 17.6 73 73 SE 8 13 30.03 1017 10 16.09344 0 0
10:15 am 10:15 Sunny 73 22.7 63 17.2 71 71 SE 8 13 30.03 1017 10 16.09344 0 0
10:35 am 10:35 Sunny 74 23.2 64 17.7 71 71 SE 7 11 30.03 1017 10 16.09344 0 0
10:55 am 10:55 Sunny 77 25 62 16.5 59 59 SSE 13 20 30 1016 10 16.09344 0 0
11:15 am 11:15 Sunny 77 25 62 16.4 59 59 SE 14 22 30 1016 10 16.09344 0 0
11:35 am 11:35 Sunny 79 25.9 61 15.9 54 54 SSE 14 22 30 1016 10 16.09344 0 0
11:55 am 11:55 Sunny 80 26.5 61 16.3 54 54 SSE 13 20 29.97 1015 10 16.09344 0 0
12:15 pm 12:15 Sunny 80 26.9 60 15.6 50 50 SSE 18 30 29.97 1015 10 16.09344 0 0
12:35 pm 12:35 Sunny 81 27 60 15.7 50 50 SE 16 26 29.97 1015 10 16.09344 0 0
12:55 pm 12:55 Sunny 82 27.5 62 16.5 51 51 SE 16 26 29.97 1015 10 16.09344 0 0
1:15 pm 13:15 Sunny 82 27.7 62 16.4 50 50 SE 17 28 29.91 1013 10 16.09344 0 0
1:35 pm 13:35 Sunny 83 28.1 61 16.3 49 49 SSE 16 26 29.91 1013 10 16.09344 0 0
1:55 pm 13:55 Sunny 83 28.2 61 16.2 48 48 SE 21 33 29.91 1013 10 16.09344 0 0
2:15 pm 14:15 Sunny 84 28.7 61 15.9 46 46 SE 18 30 29.91 1013 10 16.09344 0 0
2:35 pm 14:35 Sunny 84 28.7 61 16 46 46 SE 17 28 29.91 1013 10 16.09344 0 0
2:55 pm 14:55 Sunny 84 28.8 61 16 46 46 SE 20 31 29.88 1012 10 16.09344 0 0
3:15 pm 15:15 Sunny 85 29.4 62 16.9 47 47 SE 17 28 29.88 1012 10 16.09344 0 0
3:35 pm 15:35 Sunny 85 29.6 62 16.5 45 45 SE 20 31 29.88 1012 10 16.09344 0 0
3:55 pm 15:55 Sunny 85 29.2 63 17.3 49 49 SE 15 24 29.88 1012 10 16.09344 0 0
4:15 pm 16:15 Sunny 86 30 63 17.2 46 46 SE 16 26 29.88 1012 10 16.09344 0 0
4:35 pm 16:35 Sunny 86 30.1 63 17.3 46 46 SSE 15 24 29.85 1011 10 16.09344 0 0
4:55 pm 16:55 Sunny 86 29.9 65 18.1 49 49 SE 16 26 29.85 1011 10 16.09344 0 0
5:15 pm 17:15 Sunny 86 30 65 18.3 49 49 SE 15 24 29.85 1011 10 16.09344 0 0
5:35 pm 17:35 Sunny 85 29.5 65 18.1 50 50 SE 16 26 29.85 1011 10 16.09344 0 0
5:55 pm 17:55 Sunny 86 29.8 64 17.8 49 49 SE 16 26 29.83 1010 10 16.09344 0 0
6:15 pm 18:15 Sunny 85 29.2 66 18.8 53 53 ESE 15 24 29.83 1010 10 16.09344 0 0
6:35 pm 18:35 Sunny 84 29 66 18.9 54 54 ESE 13 20 29.83 1010 10 16.09344 0 0
6:55 pm 18:55 Sunny 84 28.7 65 18.5 54 54 ESE 15 24 29.83 1010 10 16.09344 0 0
7:15 pm 19:15 Sunny 83 28.1 64 18 54 54 ESE 14 22 29.83 1010 10 16.09344 0 0
7:35 pm 19:35 Sunny 81 27.1 64 17.9 57 57 ESE 13 20 29.83 1010 10 16.09344 0 0
7:55 pm 19:55 Sunny 80 26.8 64 18 59 59 ESE 13 20 29.83 1010 10 16.09344 0 0
8:15 pm 20:15 Sunny 79 26.1 65 18.1 61 61 ESE 12 19 29.85 1011 10 16.09344 0 0
8:35 pm 20:35 Sunny 78 25.7 64 17.6 61 61 ESE 13 20 29.85 1011 10 16.09344 0 0
8:55 pm 20:55 Clear 75 24.1 65 18.5 71 71 E 13 20 29.85 1011 10 16.09344 0 0
9:15 pm 21:15 Clear 75 24 66 18.8 73 73 ESE 14 22 29.88 1012 10 16.09344 0 0
9:35 pm 21:35 Clear 74 23.6 66 18.7 74 74 ESE 13 20 29.88 1012 7 11.265408 0 0
9:55 pm 21:55 Clear 74 23.2 65 18.5 75 75 ESE 12 19 29.88 1012 10 16.09344 0 0
10:15 pm 22:15 Clear 73 23 65 18.5 76 76 ESE 13 20 29.91 1013 10 16.09344 0 0
10:35 pm 22:35 Clear 73 22.8 65 18.3 76 76 ESE 12 19 29.94 1014 10 16.09344 0 0
10:55 pm 22:55 Clear 72 22.2 65 18.1 78 78 ESE 12 19 29.94 1014 10 16.09344 0 0
11:15 pm 23:15 Clear 71 21.7 65 18.1 80 80 ESE 10 17 29.94 1014 10 16.09344 0 0
11:35 pm 23:35 Clear 71 21.5 65 18.1 81 81 ESE 12 19 29.94 1014 10 16.09344 0 0
11:55 pm 23:55 Clear 70 21.3 64 18 82 82 ESE 13 20 29.91 1013 10 16.09344 0 0

Powered by AerisWeather